User: anonymous
Location: Kitchener
(43.4500°N, 80.5000°W)
Time: 10:11:27
(UTC-04:00)
Language:

Cosmos 1939 Rocket - Orbit

View from above orbital plane
View from above orbital plane
View from above satellite
View from above satellite

Ground track
Ground track

The orbit data is extracted from the following two-line orbital elements,

1 19046U 88032B   14264.75787853  .00001920  00000-0  15788-3 0  9958
2 19046 097.6370 317.5762 0039135 133.3628 227.0867 14.99728851422679
Epoch (UTC): 21 September 2014 18:11:20
Eccentricity: 0.0039135
inclination: 97.6370°
perigee height: 540 km
apogee height: 595 km
right ascension of ascending node: 317.5762°
argument of perigee: 133.3628°
revolutions per day: 14.99728851
mean anomaly at epoch: 227.0867°
orbit number at epoch: 42267

The dashed part of the orbit path shows where the satellite is in the earth's shadow,  

DLR